• în Republica Moldova
  • Lista ţărilor
  • Pe 7 zile
  • Temperatura apei
  • Hartă satelitară
  • Meteo pe hartă
  • Widget-uri
  • user-avatar
    Intrare

    Meteo pe oră la Buda-Lyushevskaya

    Astăzi, 19 Aprilie, Joi

    Timp Temperatura Precipitaţii Vânt Presiune Umiditate
    00:00 +8°C° 0 mm 6 m/s 750 mmHg 76%
    01:00 +8°C° 0 mm 6 m/s 749 mmHg 77%
    02:00 +7°C° 0 mm 5 m/s 749 mmHg 79%
    03:00 +7°C° 0 mm 6 m/s 748 mmHg 80%
    04:00 +6°C° 0 mm 7 m/s 748 mmHg 80%
    05:00 +6°C° 0 mm 7 m/s 748 mmHg 81%
    06:00 +6°C° 0 mm 8 m/s 748 mmHg 79%
    07:00 +7°C° 0 mm 8 m/s 748 mmHg 77%
    08:00 +7°C° 0 mm 8 m/s 747 mmHg 75%
    09:00 +9°C° 0 mm 8 m/s 747 mmHg 73%
    10:00 +9°C° 0 mm 8 m/s 747 mmHg 71%
    11:00 +9°C° 0 mm 8 m/s 747 mmHg 69%
    12:00 +9°C° 0 mm 8 m/s 747 mmHg 69%
    13:00 +10°C° 0 mm 8 m/s 747 mmHg 68%
    14:00 +10°C° 0 mm 8 m/s 748 mmHg 68%
    15:00 +9°C° 0 mm 8 m/s 748 mmHg 68%
    16:00 +9°C° 0 mm 8 m/s 748 mmHg 69%
    17:00 +9°C° 0 mm 8 m/s 748 mmHg 70%
    18:00 +9°C° 0 mm 7 m/s 748 mmHg 71%
    19:00 +8°C° 0 mm 7 m/s 749 mmHg 72%
    20:00 +8°C° 0 mm 7 m/s 749 mmHg 73%
    21:00 +8°C° 0 mm 7 m/s 749 mmHg 74%
    22:00 +7°C° 0 mm 6 m/s 750 mmHg 75%
    23:00 +7°C° 0 mm 6 m/s 750 mmHg 76%

    Mâine, 20 Aprilie, Vineri

    Timp Temperatura Precipitaţii Vânt Presiune Umiditate
    00:00 +5°C° 0 mm 6 m/s 750 mmHg 79%
    01:00 +5°C° 0 mm 6 m/s 750 mmHg 83%
    02:00 +4°C° 0 mm 6 m/s 751 mmHg 87%
    03:00 +5°C° 0 mm 5 m/s 751 mmHg 89%
    04:00 +5°C° 0 mm 5 m/s 751 mmHg 91%
    05:00 +5°C° 0 mm 5 m/s 751 mmHg 93%
    06:00 +6°C° 0 mm 5 m/s 752 mmHg 87%
    07:00 +7°C° 0 mm 5 m/s 752 mmHg 82%
    08:00 +8°C° 0 mm 5 m/s 752 mmHg 76%
    09:00 +10°C° 0 mm 5 m/s 752 mmHg 70%
    10:00 +11°C° 0 mm 6 m/s 753 mmHg 63%
    11:00 +14°C° 0 mm 6 m/s 753 mmHg 56%
    12:00 +14°C° 0 mm 6 m/s 753 mmHg 54%
    13:00 +15°C° 0 mm 6 m/s 753 mmHg 51%
    14:00 +15°C° 0 mm 6 m/s 752 mmHg 49%
    15:00 +15°C° 0 mm 5 m/s 752 mmHg 50%
    16:00 +15°C° 0 mm 5 m/s 752 mmHg 50%
    17:00 +15°C° 0 mm 4 m/s 752 mmHg 51%
    18:00 +13°C° 0 mm 3 m/s 752 mmHg 57%
    19:00 +12°C° 0 mm 2 m/s 752 mmHg 63%
    20:00 +11°C° 0 mm 1 m/s 752 mmHg 70%
    21:00 +9°C° 0 mm 2 m/s 752 mmHg 72%
    22:00 +9°C° 0 mm 2 m/s 752 mmHg 74%
    23:00 +9°C° 0 mm 2 m/s 751 mmHg 76%

    Poimâine, 21 Aprilie, Sâmbătă

    Timp Temperatura Precipitaţii Vânt Presiune Umiditate
    00:00 +8°C° 0 mm 2 m/s 751 mmHg 77%
    01:00 +8°C° 0 mm 3 m/s 751 mmHg 79%
    02:00 +7°C° 0 mm 3 m/s 750 mmHg 81%
    03:00 +7°C° 0 mm 3 m/s 750 mmHg 81%
    04:00 +7°C° 0 mm 3 m/s 749 mmHg 80%
    05:00 +6°C° 0 mm 4 m/s 748 mmHg 80%
    06:00 +8°C° 0 mm 5 m/s 747 mmHg 74%
    07:00 +10°C° 0 mm 6 m/s 747 mmHg 67%
    08:00 +13°C° 0 mm 6 m/s 746 mmHg 61%
    09:00 +14°C° 0 mm 7 m/s 745 mmHg 57%
    10:00 +16°C° 0 mm 8 m/s 744 mmHg 53%
    11:00 +18°C° 0 mm 8 m/s 743 mmHg 49%
    12:00 +19°C° 0 mm 9 m/s 743 mmHg 50%
    13:00 +19°C° 0 mm 9 m/s 742 mmHg 50%
    14:00 +21°C° 0 mm 9 m/s 741 mmHg 50%
    15:00 +19°C° 0,3 mm 9 m/s 741 mmHg 51%
    16:00 +20°C° 0,3 mm 8 m/s 740 mmHg 52%
    17:00 +18°C° 0,3 mm 8 m/s 740 mmHg 52%
    18:00 +16°C° 0 mm 7 m/s 741 mmHg 54%
    19:00 +14°C° 0 mm 6 m/s 741 mmHg 56%
    20:00 +12°C° 0 mm 5 m/s 742 mmHg 58%
    21:00 +10°C° 0 mm 5 m/s 742 mmHg 56%
    22:00 +9°C° 0 mm 5 m/s 743 mmHg 54%
    23:00 +8°C° 0 mm 6 m/s 743 mmHg 53%

    22 Aprilie, Duminică

    Timp Temperatura Precipitaţii Vânt Presiune Umiditate
    00:00 +8°C° 0 mm 5 m/s 743 mmHg 55%
    01:00 +7°C° 0 mm 5 m/s 744 mmHg 58%
    02:00 +6°C° 0 mm 5 m/s 744 mmHg 61%
    03:00 +6°C° 0 mm 5 m/s 744 mmHg 64%
    04:00 +5°C° 0 mm 5 m/s 745 mmHg 67%
    05:00 +5°C° 0 mm 4 m/s 745 mmHg 69%
    06:00 +6°C° 0 mm 5 m/s 745 mmHg 65%
    07:00 +7°C° 0 mm 6 m/s 745 mmHg 60%
    08:00 +9°C° 0 mm 7 m/s 745 mmHg 56%
    09:00 +10°C° 0 mm 7 m/s 745 mmHg 52%
    10:00 +11°C° 0 mm 7 m/s 745 mmHg 47%
    11:00 +12°C° 0 mm 8 m/s 745 mmHg 43%
    12:00 +12°C° 0 mm 7 m/s 745 mmHg 42%
    13:00 +14°C° 0 mm 7 m/s 745 mmHg 40%
    14:00 +14°C° 0 mm 7 m/s 745 mmHg 39%
    15:00 +14°C° 0 mm 7 m/s 745 mmHg 41%
    16:00 +14°C° 0 mm 6 m/s 745 mmHg 43%
    17:00 +13°C° 0 mm 5 m/s 745 mmHg 45%
    18:00 +12°C° 0 mm 5 m/s 745 mmHg 51%
    19:00 +11°C° 0 mm 4 m/s 745 mmHg 56%
    20:00 +10°C° 0 mm 3 m/s 745 mmHg 62%
    21:00 +9°C° 0,1 mm 3 m/s 745 mmHg 65%
    22:00 +9°C° 0,1 mm 3 m/s 745 mmHg 68%
    23:00 +9°C° 0,1 mm 3 m/s 745 mmHg 71%

    23 Aprilie, Luni

    Timp Temperatura Precipitaţii Vânt Presiune Umiditate
    00:00 +8°C° 0,1 mm 3 m/s 745 mmHg 73%
    01:00 +8°C° 0,1 mm 3 m/s 746 mmHg 75%
    02:00 +8°C° 0,1 mm 3 m/s 746 mmHg 77%
    03:00 +7°C° 0 mm 3 m/s 746 mmHg 79%
    04:00 +6°C° 0 mm 2 m/s 746 mmHg 81%
    05:00 +6°C° 0 mm 2 m/s 746 mmHg 83%
    06:00 +7°C° 0 mm 2 m/s 746 mmHg 76%
    07:00 +8°C° 0 mm 2 m/s 746 mmHg 69%
    08:00 +9°C° 0 mm 2 m/s 746 mmHg 62%
    09:00 +12°C° 0 mm 2 m/s 746 mmHg 56%
    10:00 +13°C° 0 mm 2 m/s 746 mmHg 49%
    11:00 +14°C° 0 mm 2 m/s 747 mmHg 43%
    12:00 +15°C° 0 mm 2 m/s 746 mmHg 41%
    13:00 +15°C° 0 mm 2 m/s 746 mmHg 39%
    14:00 +16°C° 0 mm 2 m/s 746 mmHg 37%
    15:00 +16°C° 0 mm 1 m/s 746 mmHg 38%
    16:00 +15°C° 0 mm 1 m/s 745 mmHg 38%
    17:00 +15°C° 0 mm 1 m/s 745 mmHg 39%
    18:00 +14°C° 0 mm 1 m/s 745 mmHg 45%
    19:00 +12°C° 0 mm 2 m/s 745 mmHg 51%
    20:00 +9°C° 0 mm 2 m/s 745 mmHg 57%
    21:00 +9°C° 0 mm 2 m/s 745 mmHg 59%
    22:00 +8°C° 0 mm 3 m/s 745 mmHg 62%
    23:00 +8°C° 0 mm 3 m/s 745 mmHg 64%

    24 Aprilie, Marţi

    Timp Temperatura Precipitaţii Vânt Presiune Umiditate
    00:00 +8°C° 0 mm 3 m/s 744 mmHg 65%
    01:00 +7°C° 0 mm 4 m/s 744 mmHg 66%
    02:00 +7°C° 0 mm 4 m/s 743 mmHg 67%
    03:00 +7°C° 0 mm 4 m/s 743 mmHg 69%
    04:00 +7°C° 0 mm 4 m/s 742 mmHg 71%
    05:00 +7°C° 0 mm 4 m/s 741 mmHg 73%
    06:00 +7°C° 0,7 mm 4 m/s 741 mmHg 77%
    07:00 +7°C° 0,7 mm 4 m/s 741 mmHg 81%
    08:00 +9°C° 0,7 mm 3 m/s 740 mmHg 85%
    09:00 +9°C° 0,5 mm 3 m/s 740 mmHg 85%
    10:00 +10°C° 0,5 mm 3 m/s 740 mmHg 84%
    11:00 +11°C° 0,5 mm 3 m/s 740 mmHg 84%
    12:00 +12°C° 0 mm 4 m/s 740 mmHg 79%
    13:00 +13°C° 0 mm 4 m/s 740 mmHg 74%
    14:00 +14°C° 0 mm 5 m/s 740 mmHg 69%
    15:00 +14°C° 0 mm 5 m/s 740 mmHg 65%
    16:00 +14°C° 0 mm 5 m/s 740 mmHg 62%
    17:00 +14°C° 0 mm 5 m/s 740 mmHg 58%
    18:00 +13°C° 0 mm 4 m/s 740 mmHg 64%
    19:00 +11°C° 0 mm 3 m/s 741 mmHg 69%
    20:00 +9°C° 0 mm 3 m/s 741 mmHg 75%
    21:00 +9°C° 0 mm 3 m/s 741 mmHg 78%
    22:00 +8°C° 0 mm 2 m/s 741 mmHg 82%
    23:00 +7°C° 0 mm 2 m/s 741 mmHg 85%
    Arată mai mult